EA3CTN-13 Weather Reports


Display with metric or nautical units.
time (UTC)temp
F
wind
direction
speed
MPH
gust
MPH
rain 1hr
in
rain 24hr
in
rain mn
in
humidity
%
barometer
mb
20260509220416 66 0.0 0.0 0.00 0.00 0.00 62 1014.0
20260509215616 66 0.0 0.0 0.00 0.00 0.00 62 1014.0
20260509214816 66 0.0 0.0 0.00 0.00 0.00 63 1014.1
20260509214016 66 0.0 0.0 0.00 0.00 0.00 62 1014.0
20260509213216 66 0.0 0.0 0.00 0.00 0.00 62 1014.0
20260509212416 66 0.0 0.0 0.00 0.00 0.00 61 1013.9
20260509211616 66 0.0 0.0 0.00 0.00 0.00 62 1013.8
20260509210816 66 0.0 0.0 0.00 0.00 0.00 62 1013.9
20260509210016 66 0.0 0.0 0.00 0.00 0.00 63 1013.9
20260509205216 66 0.0 0.0 0.00 0.00 0.00 63 1013.8
20260509204416 66 0.0 0.0 0.00 0.00 0.00 63 1013.7
20260509203616 66 0.0 0.0 0.00 0.00 0.00 63 1013.6
20260509202816 66 0.0 0.0 0.00 0.00 0.00 64 1013.4
20260509202016 66 0.0 0.0 0.00 0.00 0.00 64 1013.3
20260509201216 66 0.0 0.0 0.00 0.00 0.00 65 1013.1
20260509200416 66 0.0 0.0 0.00 0.00 0.00 65 1013.0
20260509195616 66 0.0 0.0 0.00 0.00 0.00 65 1012.9
20260509194816 66 0.0 0.0 0.00 0.00 0.00 65 1012.7
20260509194016 66 0.0 0.0 0.00 0.00 0.00 65 1012.6
20260509193216 66 0.0 0.0 0.00 0.00 0.00 65 1012.5
20260509192416 66 0.0 0.0 0.00 0.00 0.00 64 1012.5
20260509191616 66 0.0 0.0 0.00 0.00 0.00 64 1012.4
20260509190816 66 0.0 0.0 0.00 0.00 0.00 65 1012.3
20260509190016 66 0.0 0.0 0.00 0.00 0.00 65 1012.2
20260509185216 66 0.0 0.0 0.00 0.00 0.00 65 1012.0
20260509184416 66 0.0 0.0 0.00 0.00 0.00 64 1011.7
20260509183616 66 0.0 0.0 0.00 0.00 0.00 64 1011.7
20260509182816 66 0.0 0.0 0.00 0.00 0.00 64 1011.5
20260509182016 67 0.0 0.0 0.00 0.00 0.00 64 1011.4
20260509181216 67 0.0 0.0 0.00 0.00 0.00 64 1011.4
20260509180416 67 0.0 0.0 0.00 0.00 0.00 64 1011.2
20260509175616 67 0.0 0.0 0.00 0.00 0.00 63 1011.2
20260509174816 67 0.0 0.0 0.00 0.00 0.00 63 1011.1
20260509174016 66 0.0 0.0 0.00 0.00 0.00 62 1011.0
20260509173216 66 0.0 0.0 0.00 0.00 0.00 63 1011.0
20260509172416 66 0.0 0.0 0.00 0.00 0.00 63 1011.2
20260509171616 66 0.0 0.0 0.00 0.00 0.00 63 1011.1
20260509170816 66 0.0 0.0 0.00 0.00 0.00 63 1011.1
20260509170016 66 0.0 0.0 0.00 0.00 0.00 63 1011.0
20260509165216 66 0.0 0.0 0.00 0.00 0.00 63 1011.2
20260509164416 67 0.0 0.0 0.00 0.00 0.00 62 1011.7
20260509163616 67 0.0 0.0 0.00 0.00 0.00 62 1012.1
20260509162816 67 0.0 0.0 0.00 0.00 0.00 61 1012.7
20260509162016 67 0.0 0.0 0.00 0.00 0.00 62 1012.9
20260509161216 67 0.0 0.0 0.00 0.00 0.00 62 1013.1
20260509160416 68 0.0 0.0 0.00 0.00 0.00 62 1013.4
20260509155616 68 0.0 0.0 0.00 0.00 0.00 61 1013.6
20260509154816 68 0.0 0.0 0.00 0.00 0.00 61 1013.8
20260509154016 68 0.0 0.0 0.00 0.00 0.00 63 1013.9
20260509153216 68 0.0 0.0 0.00 0.00 0.00 64 1013.8
20260509152416 68 0.0 0.0 0.00 0.00 0.00 63 1013.4
20260509151616 68 0.0 0.0 0.00 0.00 0.00 64 1013.3
20260509150816 68 0.0 0.0 0.00 0.00 0.00 64 1012.6
20260509150016 68 0.0 0.0 0.00 0.00 0.00 64 1010.8
20260509145216 67 0.0 0.0 0.00 0.00 0.00 65 1009.9
20260509144416 68 0.0 0.0 0.00 0.00 0.00 63 1010.3
20260509143616 68 0.0 0.0 0.00 0.00 0.00 63 1010.7
20260509142816 68 0.0 0.0 0.00 0.00 0.00 64 1010.9
20260509142016 68 0.0 0.0 0.00 0.00 0.00 62 1011.6
20260509141216 68 0.0 0.0 0.00 0.00 0.00 62 1012.5
20260509140416 69 0.0 0.0 0.00 0.00 0.00 62 1013.1
20260509135616 69 0.0 0.0 0.00 0.00 0.00 61 1013.1
20260509134816 69 0.0 0.0 0.00 0.00 0.00 60 1013.5
20260509134016 69 0.0 0.0 0.00 0.00 0.00 60 1013.6
20260509133216 69 0.0 0.0 0.00 0.00 0.00 57 1013.7
20260509132416 69 0.0 0.0 0.00 0.00 0.00 57 1013.4
20260509131616 69 0.0 0.0 0.00 0.00 0.00 57 1013.2
20260509130816 69 0.0 0.0 0.00 0.00 0.00 56 1013.0
20260509130016 69 0.0 0.0 0.00 0.00 0.00 56 1012.3
20260509125216 69 0.0 0.0 0.00 0.00 0.00 56 1012.0
20260509124416 70 0.0 0.0 0.00 0.00 0.00 56 1011.9
20260509123616 70 0.0 0.0 0.00 0.00 0.00 56 1012.0
20260509122816 69 0.0 0.0 0.00 0.00 0.00 57 1012.2
20260509122016 69 0.0 0.0 0.00 0.00 0.00 58 1012.5
20260509121216 70 0.0 0.0 0.00 0.00 0.00 59 1012.7
20260509120416 70 0.0 0.0 0.00 0.00 0.00 58 1013.2
20260509115616 70 0.0 0.0 0.00 0.00 0.00 58 1013.5
20260509114816 70 0.0 0.0 0.00 0.00 0.00 59 1013.9
20260509114016 69 0.0 0.0 0.00 0.00 0.00 60 1014.3
20260509113216 69 0.0 0.0 0.00 0.00 0.00 60 1014.4
20260509112416 69 0.0 0.0 0.00 0.00 0.00 60 1014.5
20260509111615 70 0.0 0.0 0.00 0.00 0.00 58 1014.6
20260509110816 70 0.0 0.0 0.00 0.00 0.00 55 1014.3
20260509110015 71 0.0 0.0 0.00 0.00 0.00 54 1014.2
20260509105215 71 0.0 0.0 0.00 0.00 0.00 55 1014.1
20260509103723 69 0.0 0.0 0.00 0.00 0.00 60 1014.4
20260509102923 69 0.0 0.0 0.00 0.00 0.00 61 1014.4
20260509102123 69 0.0 0.0 0.00 0.00 0.00 60 1014.6
20260509101323 69 0.0 0.0 0.00 0.00 0.00 60 1014.5
20260509100524 69 0.0 0.0 0.00 0.00 0.00 63 1014.3
20260509095723 68 0.0 0.0 0.00 0.00 0.00 61 1014.3
20260509094923 69 0.0 0.0 0.00 0.00 0.00 60 1014.3
20260509094123 69 0.0 0.0 0.00 0.00 0.00 60 1014.1
20260509093323 69 0.0 0.0 0.00 0.00 0.00 60 1014.1
20260509092523 69 0.0 0.0 0.00 0.00 0.00 60 1013.9
20260509091723 68 0.0 0.0 0.00 0.00 0.00 61 1013.9
20260509090923 68 0.0 0.0 0.00 0.00 0.00 62 1013.9
20260509090123 68 0.0 0.0 0.00 0.00 0.00 63 1013.7
20260509085324 68 0.0 0.0 0.00 0.00 0.00 64 1013.6
20260509084524 68 0.0 0.0 0.00 0.00 0.00 65 1013.6
20260509083723 67 0.0 0.0 0.00 0.00 0.00 66 1013.5
20260509082923 67 0.0 0.0 0.00 0.00 0.00 66 1013.6
20260509082123 67 0.0 0.0 0.00 0.00 0.00 67 1013.5